Time,TemperatureF,DewpointF,PressureIn,WindDirection,WindDirectionDegrees,WindSpeedMPH,WindSpeedGustMPH,Humidity,HourlyPrecipIn,Conditions,Clouds,dailyrainin,SoftwareType,DateUTC
2013-10-23 00:00:00,49.6,44.3,29.95,WSW,248,0.0,0.0,82,0.00,,---,0.00,VWS V14.01,2013-10-23 07:00:00,
2013-10-23 01:00:00,49.6,44.3,29.95,WSW,248,0.0,0.0,82,0.00,,---,0.00,VWS V14.01,2013-10-23 08:00:00,
2013-10-23 02:00:00,46.6,42.6,29.95,WSW,248,0.0,0.0,86,0.00,,---,0.00,VWS V14.01,2013-10-23 09:00:00,
2013-10-23 03:00:00,46.6,42.6,29.95,WSW,248,0.0,0.0,86,0.00,,---,0.00,VWS V14.01,2013-10-23 10:00:00,
2013-10-23 04:00:00,43.9,41.2,29.94,WSW,248,0.0,0.0,90,0.00,,---,0.00,VWS V14.01,2013-10-23 11:00:00,
2013-10-23 05:00:00,43.9,41.2,29.94,WSW,248,0.0,0.0,90,0.00,,---,0.00,VWS V14.01,2013-10-23 12:00:00,
2013-10-23 06:00:00,39.8,38.5,29.95,WSW,248,0.0,0.0,95,0.00,,---,0.00,VWS V14.01,2013-10-23 13:00:00,
2013-10-23 07:00:00,39.8,38.5,29.95,WSW,248,0.0,0.0,95,0.00,,---,0.00,VWS V14.01,2013-10-23 14:00:00,
2013-10-23 08:00:00,38.8,37.8,29.96,WSW,248,0.0,0.0,96,0.00,,---,0.00,VWS V14.01,2013-10-23 15:00:00,
2013-10-23 09:00:00,38.8,37.8,29.96,WSW,248,0.0,0.0,96,0.00,,---,0.00,VWS V14.01,2013-10-23 16:00:00,
2013-10-23 10:00:00,48.0,44.0,29.97,East,90,0.0,2.0,86,0.00,,---,0.00,VWS V14.01,2013-10-23 17:00:00,
2013-10-23 11:00:00,48.0,44.0,29.97,East,90,0.0,2.0,86,0.00,,---,0.00,VWS V14.01,2013-10-23 18:00:00,
2013-10-23 12:00:00,64.6,50.0,29.95,East,90,1.0,3.0,59,0.00,,---,0.00,VWS V14.01,2013-10-23 19:00:00,
2013-10-23 13:00:00,64.6,50.0,29.95,East,90,1.0,3.0,59,0.00,,---,0.00,VWS V14.01,2013-10-23 20:00:00,
2013-10-23 14:00:00,76.7,48.5,29.91,SW,225,1.0,7.0,37,0.00,,---,0.00,VWS V14.01,2013-10-23 21:00:00,
2013-10-23 15:00:00,76.7,48.5,29.91,SW,225,1.0,7.0,37,0.00,,---,0.00,VWS V14.01,2013-10-23 22:00:00,
2013-10-23 16:00:00,79.0,47.5,29.89,SW,225,2.0,10.0,33,0.00,,---,0.00,VWS V14.01,2013-10-23 23:00:00,
2013-10-23 17:00:00,79.0,47.5,29.89,SW,225,2.0,10.0,33,0.00,,---,0.00,VWS V14.01,2013-10-24 00:00:00,
2013-10-23 18:00:00,68.6,49.8,29.89,SW,225,3.0,12.0,51,0.00,,---,0.00,VWS V14.01,2013-10-24 01:00:00,
2013-10-23 19:00:00,68.6,49.8,29.89,SW,225,3.0,12.0,51,0.00,,---,0.00,VWS V14.01,2013-10-24 02:00:00,
2013-10-23 20:00:00,57.7,46.0,29.91,SW,225,1.0,9.0,65,0.00,,---,0.00,VWS V14.01,2013-10-24 03:00:00,
2013-10-23 21:00:00,57.7,46.0,29.91,SW,225,1.0,9.0,65,0.00,,---,0.00,VWS V14.01,2013-10-24 04:00:00,
2013-10-23 22:00:00,49.5,44.9,29.95,SW,225,2.0,11.0,84,0.00,,---,0.00,VWS V14.01,2013-10-24 05:00:00,
2013-10-23 23:00:00,49.5,44.9,29.95,SW,225,2.0,11.0,84,0.00,,---,0.00,VWS V14.01,2013-10-24 06:00:00,